Weather History for West Plains, MO

Change the Weather History Date:

Sunday, February 16, 2014

  Actual Average Record
Temperature  
Mean Temperature 37 °F 38 °F  
Max Temperature 50 °F 49 °F 75 °F (1976)
Min Temperature 24 °F 27 °F -2 °F (1958)
Degree Days  
Heating Degree Days 28 27  
Month to date heating degree days 636 459  
Since 1 July heating degree days 3496 3163  
Cooling Degree Days 0 0  
Month to date cooling degree days 0 0  
Year to date cooling degree days 0 0  
Moisture  
Dew Point 28 °F    
Average Humidity 67    
Maximum Humidity 88    
Minimum Humidity 46    
Precipitation  
Precipitation 0.00 in 0.09 in 1.87 in (1990)
Month to date precipitation 0.25 1.59  
Year to date precipitation 1.85 4.31  
Sea Level Pressure  
Sea Level Pressure 30.11 in    
Wind  
Wind Speed 7 mph (NE)    
Max Wind Speed 14 mph    
Max Gust Speed 20 mph    
Visibility 9 miles    
Events      
T = Trace of Precipitation, MM = Missing Value Source: NWS Daily Summary

Daily Weather History Graph

Daily Weather History Graph

Search for Another Location

Airport:

Trip Planner

Search our weather history database for the weather conditions in past years. The results will help you decide how hot, cold, wet, or windy it might be!

Date:

Astronomy

Feb. 16, 2014 Rise Set
Actual Time 6:54 AM CST 5:49 PM CST
Civil Twilight 6:28 AM CST 6:15 PM CST
Nautical Twilight 5:58 AM CST 6:45 PM CST
Astronomical Twilight 5:27 AM CST 7:15 PM CST
Moon 7:42 PM CST (2/16) 7:28 AM CST (2/16)
Length of Visible Light 11h 47m
Length of Day
10h 54m
Full, 97% of the Moon is Illuminated
Feb 16
Full
Feb 22
Last Quarter
Mar 1
New
Mar 8
First Quarter
Mar 16
Full

Hourly Weather History & Observations

Time (CST) Temp. Windchill Dew Point Humidity Pressure Visibility Wind Dir Wind Speed Gust Speed Precip Events Conditions
12:53 AM 28.0 °F 21.7 °F 23.0 °F 81% 30.04 in 10.0 mi West 5.8 mph - N/A   Clear
1:53 AM 28.0 °F 20.8 °F 21.9 °F 78% 30.05 in 10.0 mi West 6.9 mph - N/A   Clear
2:53 AM 28.0 °F 21.7 °F 23.0 °F 81% 30.05 in 10.0 mi West 5.8 mph - N/A   Clear
3:53 AM 27.0 °F 20.5 °F 21.9 °F 81% 30.04 in 10.0 mi West 5.8 mph - N/A   Clear
4:53 AM 30.0 °F 24.1 °F 26.1 °F 85% 30.07 in 10.0 mi NW 5.8 mph - N/A   Clear
5:53 AM 32.0 °F 28.7 °F 26.1 °F 79% 30.10 in 10.0 mi NW 3.5 mph - N/A   Clear
6:53 AM 30.9 °F 26.2 °F 26.1 °F 82% 30.12 in 10.0 mi NNW 4.6 mph - N/A   Clear
7:53 AM 34.0 °F 29.8 °F 28.0 °F 79% 30.14 in 10.0 mi North 4.6 mph - N/A   Clear
8:53 AM 37.0 °F 31.6 °F 28.9 °F 73% 30.17 in 10.0 mi NNW 6.9 mph - N/A   Clear
9:53 AM 41.0 °F 36.4 °F 30.0 °F 65% 30.18 in 10.0 mi NW 6.9 mph - N/A   Clear
10:53 AM 45.0 °F 43.5 °F 30.0 °F 56% 30.18 in 10.0 mi NE 3.5 mph - N/A   Clear
11:53 AM 48.0 °F - 30.0 °F 50% 30.17 in 10.0 mi NNE 5.8 mph - N/A   Clear
12:53 PM 48.9 °F - 28.0 °F 44% 30.15 in 10.0 mi North - - N/A   Clear
1:53 PM 48.9 °F - 28.9 °F 46% 30.13 in 10.0 mi ENE 6.9 mph - N/A   Clear
2:53 PM 48.9 °F - 28.0 °F 44% 30.13 in 10.0 mi ESE 6.9 mph - N/A   Clear
3:53 PM 48.9 °F - 30.0 °F 48% 30.12 in 10.0 mi ESE 8.1 mph - N/A   Clear
4:53 PM 48.0 °F - 28.0 °F 46% 30.12 in 10.0 mi ESE 8.1 mph - N/A   Clear
5:53 PM 45.0 °F 41.8 °F 28.9 °F 53% 30.13 in 10.0 mi East 5.8 mph - N/A   Clear
6:53 PM 42.1 °F 36.1 °F 28.0 °F 58% 30.12 in 10.0 mi East 10.4 mph - N/A   Mostly Cloudy
7:53 PM 39.9 °F 34.5 °F 32.0 °F 73% 30.12 in 10.0 mi ESE 8.1 mph - N/A   Overcast
8:53 PM 37.0 °F 30.4 °F 30.9 °F 79% 30.11 in 9.0 mi ESE 9.2 mph - N/A   Partly Cloudy
9:53 PM 35.1 °F 26.9 °F 30.0 °F 82% 30.10 in 7.0 mi ESE 11.5 mph - N/A   Clear
10:53 PM 33.1 °F 25.5 °F 28.9 °F 85% 30.10 in 5.0 mi ESE 9.2 mph - N/A   Clear
11:53 PM 32.0 °F 24.2 °F 28.0 °F 85% 30.09 in 5.0 mi ESE 9.2 mph - N/A   Mostly Cloudy